TRA1256 LIRP-EHAM

Flight info

Callsign TRA1256
Flight time 1h 39m
Altitude 36000
Route BEROK DCT OSBUL DCT ROBAS DCT ARLES DCT PUNSA DCT VADEM DCT GILIR DCT PENDU DCT IXILU DCT EPL DCT ROUSY DCT KOMOB DCT BUB Y28 HELEN
Aircraft B738/M-SDGIJ1LRWY/SB1

Departure

Time 2026-04-28 12:43
Airport Pisa International Airport (LIRP)

Arrival

Time 2026-04-28 14:23
Airport Amsterdam Airport Schiphol (EHAM)
Time Latitude Longitude Altitude Speed Heading
2026-04-28 12:28 43.69761 10.39954 29 ft 0 kts 38°
2026-04-28 12:37 43.69751 10.39942 29 ft 2 kts 38°
2026-04-28 12:37 43.69739 10.39929 29 ft 2 kts 38°
2026-04-28 12:37 43.69727 10.39916 29 ft 2 kts 38°
2026-04-28 12:38 43.69716 10.39903 29 ft 2 kts 38°
2026-04-28 12:38 43.69703 10.39891 29 ft 2 kts 46°
2026-04-28 12:38 43.69698 10.39873 29 ft 1 kts 92°
2026-04-28 12:38 43.69699 10.39865 29 ft 1 kts 102°
2026-04-28 12:39 43.69700 10.39861 29 ft 0 kts 99°
2026-04-28 12:40 43.69699 10.39865 29 ft 3 kts 99°
2026-04-28 12:40 43.69695 10.39904 29 ft 3 kts 97°
2026-04-28 12:41 43.69693 10.39934 29 ft 2 kts 97°
2026-04-28 12:41 43.69691 10.39950 29 ft 0 kts 97°
2026-04-28 12:41 43.69688 10.39982 29 ft 10 kts 99°
2026-04-28 12:41 43.69636 10.40053 29 ft 11 kts 165°
2026-04-28 12:42 43.69561 10.40071 29 ft 10 kts 171°
2026-04-28 12:42 43.69487 10.40086 29 ft 11 kts 171°
2026-04-28 12:42 43.69404 10.40103 29 ft 12 kts 172°
2026-04-28 12:42 43.69319 10.40066 28 ft 19 kts 214°
2026-04-28 12:43 43.68996 10.39729 27 ft 93 kts 215°
2026-04-28 12:43 43.68308 10.39024 25 ft 152 kts 217°
2026-04-28 12:43 43.67372 10.38076 403 ft 171 kts 218°
2026-04-28 12:43 43.66436 10.37102 1147 ft 173 kts 216°
2026-04-28 12:44 43.65427 10.36122 1702 ft 184 kts 213°
2026-04-28 12:44 43.64331 10.35020 2003 ft 205 kts 221°
2026-04-28 12:44 43.63561 10.33323 2443 ft 219 kts 254°
2026-04-28 12:44 43.63564 10.31229 3041 ft 225 kts 282°
2026-04-28 12:45 43.64137 10.29238 3659 ft 228 kts 300°
2026-04-28 12:45 43.65063 10.27449 4287 ft 231 kts 307°
2026-04-28 12:45 43.66090 10.25776 4904 ft 232 kts 315°
2026-04-28 12:45 43.67416 10.24506 5511 ft 235 kts 338°
2026-04-28 12:46 43.69001 10.24122 6104 ft 237 kts
2026-04-28 12:46 43.70633 10.24642 6470 ft 250 kts 26°
2026-04-28 12:46 43.72145 10.25966 6843 ft 265 kts 38°
2026-04-28 12:46 43.73632 10.27570 7295 ft 277 kts 39°
2026-04-28 12:47 43.75235 10.29080 7921 ft 284 kts 28°
2026-04-28 12:47 43.77045 10.30166 8621 ft 288 kts 20°
2026-04-28 12:47 43.78952 10.31067 9357 ft 291 kts 19°
2026-04-28 12:47 43.80853 10.31952 10077 ft 295 kts 19°
2026-04-28 12:48 43.82822 10.32918 10618 ft 305 kts 20°
2026-04-28 12:48 43.84853 10.33958 11025 ft 320 kts 20°
2026-04-28 12:48 43.86972 10.35052 11408 ft 336 kts 19°
2026-04-28 12:48 43.89298 10.35846 11789 ft 351 kts
2026-04-28 12:49 43.91782 10.35803 12303 ft 362 kts 354°
2026-04-28 12:49 43.94289 10.35378 12998 ft 366 kts 351°
2026-04-28 12:49 43.96792 10.34865 13716 ft 370 kts 350°
2026-04-28 12:49 43.99351 10.34396 14423 ft 375 kts 353°
2026-04-28 12:50 44.01983 10.34240 15163 ft 381 kts 358°
2026-04-28 12:50 44.04648 10.34339 15895 ft 385 kts
2026-04-28 12:50 44.07325 10.34533 16596 ft 390 kts
2026-04-28 12:50 44.10009 10.34738 17269 ft 393 kts
2026-04-28 12:51 44.12772 10.34927 17943 ft 397 kts 360°
2026-04-28 12:51 44.15540 10.35089 18603 ft 401 kts 359°
2026-04-28 12:51 44.18315 10.35122 19263 ft 403 kts 355°
2026-04-28 12:51 44.21112 10.34961 19913 ft 405 kts 353°
2026-04-28 12:52 44.23936 10.34700 20541 ft 408 kts 352°
2026-04-28 12:52 44.26734 10.34408 21150 ft 411 kts 352°
2026-04-28 12:52 44.29626 10.34106 21748 ft 414 kts 352°
2026-04-28 12:52 44.32508 10.33815 22321 ft 418 kts 352°
2026-04-28 12:53 44.35387 10.33533 22878 ft 421 kts 352°
2026-04-28 12:53 44.38327 10.33255 23408 ft 425 kts 352°
2026-04-28 12:53 44.41265 10.32983 23962 ft 428 kts 353°
2026-04-28 12:53 44.44218 10.32715 24558 ft 429 kts 352°
2026-04-28 12:54 44.47210 10.32447 25063 ft 432 kts 352°
2026-04-28 12:54 44.50203 10.32179 25589 ft 435 kts 353°
2026-04-28 12:54 44.53232 10.31909 26074 ft 438 kts 352°
2026-04-28 12:54 44.56299 10.31636 26566 ft 441 kts 353°
2026-04-28 12:55 44.59335 10.31366 27047 ft 443 kts 353°
2026-04-28 12:55 44.62400 10.31094 27533 ft 445 kts 352°
2026-04-28 12:55 44.65518 10.30816 28014 ft 448 kts 352°
2026-04-28 12:55 44.68634 10.30537 28458 ft 451 kts 352°
2026-04-28 12:56 44.71726 10.30262 28907 ft 453 kts 352°
2026-04-28 12:56 44.74908 10.29925 29369 ft 454 kts 350°
2026-04-28 12:56 44.77988 10.29247 29817 ft 452 kts 343°
2026-04-28 12:56 44.80937 10.27950 30542 ft 443 kts 335°
2026-04-28 12:57 44.83748 10.26145 31181 ft 437 kts 329°
2026-04-28 12:57 44.86347 10.23948 31639 ft 435 kts 322°
2026-04-28 12:57 44.88720 10.21380 32121 ft 432 kts 316°
2026-04-28 12:57 44.90870 10.18438 32660 ft 428 kts 310°
2026-04-28 12:58 44.92783 10.15273 33212 ft 424 kts 306°
2026-04-28 12:58 44.94611 10.12014 33700 ft 422 kts 305°
2026-04-28 12:58 44.96417 10.08793 34219 ft 420 kts 306°
2026-04-28 12:58 44.98256 10.05617 34644 ft 420 kts 307°
2026-04-28 12:59 45.00140 10.02484 35043 ft 419 kts 308°
2026-04-28 12:59 45.02059 9.99391 35320 ft 420 kts 309°
2026-04-28 12:59 45.03983 9.96359 35559 ft 421 kts 309°
2026-04-28 12:59 45.05944 9.93309 35801 ft 420 kts 310°
2026-04-28 13:00 45.07908 9.90279 35983 ft 419 kts 310°
2026-04-28 13:00 45.11850 9.84216 36003 ft 420 kts 310°
2026-04-28 13:01 45.15838 9.78076 36000 ft 426 kts 310°
2026-04-28 13:01 45.19819 9.71935 36011 ft 424 kts 309°
2026-04-28 13:02 45.23570 9.65498 36006 ft 424 kts 306°
2026-04-28 13:02 45.27133 9.58922 36015 ft 422 kts 305°
2026-04-28 13:03 45.30713 9.52328 36021 ft 422 kts 306°
2026-04-28 13:03 45.34323 9.45741 36025 ft 421 kts 306°
2026-04-28 13:04 45.37926 9.39175 36024 ft 421 kts 306°
2026-04-28 13:04 45.41517 9.32640 36030 ft 421 kts 305°
2026-04-28 13:05 45.45113 9.26097 36027 ft 421 kts 305°
2026-04-28 13:05 45.48711 9.19540 36028 ft 421 kts 305°
2026-04-28 13:06 45.52296 9.12981 36034 ft 420 kts 305°
2026-04-28 13:06 45.55883 9.06408 36035 ft 421 kts 305°
2026-04-28 13:07 45.59455 8.99845 36041 ft 421 kts 305°
2026-04-28 13:07 45.63029 8.93263 36043 ft 419 kts 305°
2026-04-28 13:08 45.66591 8.86687 36049 ft 419 kts 305°
2026-04-28 13:08 45.70166 8.80071 36048 ft 419 kts 305°
2026-04-28 13:09 45.73709 8.73493 36053 ft 419 kts 305°
2026-04-28 13:09 45.77236 8.66936 36055 ft 419 kts 305°
2026-04-28 13:10 45.80799 8.60294 36059 ft 418 kts 305°
2026-04-28 13:10 45.84338 8.53677 36067 ft 419 kts 304°
2026-04-28 13:11 45.87847 8.47105 36073 ft 418 kts 304°
2026-04-28 13:11 45.91369 8.40498 36082 ft 418 kts 304°
2026-04-28 13:12 45.94758 8.33735 36094 ft 415 kts 300°
2026-04-28 13:12 45.97757 8.26719 36101 ft 414 kts 298°
2026-04-28 13:13 46.00715 8.19597 36115 ft 415 kts 298°
2026-04-28 13:13 46.03693 8.12497 36128 ft 416 kts 298°
2026-04-28 13:14 46.06681 8.05428 36118 ft 416 kts 298°
2026-04-28 13:14 46.09693 7.98334 36115 ft 416 kts 299°
2026-04-28 13:15 46.12702 7.91295 36111 ft 416 kts 299°
2026-04-28 13:15 46.15726 7.84215 36111 ft 416 kts 298°
2026-04-28 13:16 46.18756 7.77093 36098 ft 416 kts 298°
2026-04-28 13:16 46.21759 7.70018 36107 ft 416 kts 298°
2026-04-28 13:17 46.24778 7.62886 36110 ft 415 kts 298°
2026-04-28 13:17 46.27763 7.55813 36113 ft 415 kts 298°
2026-04-28 13:18 46.30762 7.48691 36100 ft 415 kts 298°
2026-04-28 13:18 46.33741 7.41594 36086 ft 414 kts 298°
2026-04-28 13:19 46.36718 7.34482 36089 ft 415 kts 297°
2026-04-28 13:19 46.39703 7.27334 36084 ft 415 kts 297°
2026-04-28 13:20 46.42669 7.20216 36090 ft 414 kts 297°
2026-04-28 13:20 46.45633 7.13082 36088 ft 415 kts 297°
2026-04-28 13:21 46.48613 7.05900 36090 ft 415 kts 297°
2026-04-28 13:21 46.51560 6.98780 36092 ft 414 kts 297°
2026-04-28 13:22 46.54522 6.91598 36067 ft 414 kts 297°
2026-04-28 13:22 46.57485 6.84391 36056 ft 416 kts 297°
2026-04-28 13:23 46.60424 6.77232 36043 ft 414 kts 297°
2026-04-28 13:23 46.63370 6.70034 36043 ft 413 kts 297°
2026-04-28 13:24 46.66302 6.62850 36022 ft 415 kts 297°
2026-04-28 13:24 46.69228 6.55694 36020 ft 415 kts 298°
2026-04-28 13:25 46.72786 6.49043 36013 ft 424 kts 313°
2026-04-28 13:25 46.77775 6.44228 36018 ft 438 kts 326°
2026-04-28 13:26 46.83205 6.40291 36017 ft 439 kts 329°
2026-04-28 13:26 46.88711 6.36459 36023 ft 437 kts 329°
2026-04-28 13:27 46.94158 6.32634 36020 ft 437 kts 327°
2026-04-28 13:27 46.99635 6.28735 36015 ft 437 kts 327°
2026-04-28 13:28 47.05082 6.24835 36015 ft 437 kts 327°
2026-04-28 13:28 47.10560 6.20893 36010 ft 438 kts 327°
2026-04-28 13:29 47.16010 6.16966 36011 ft 439 kts 327°
2026-04-28 13:29 47.21487 6.13013 36007 ft 438 kts 327°
2026-04-28 13:30 47.26949 6.09058 36004 ft 438 kts 327°
2026-04-28 13:30 47.32445 6.05270 35997 ft 442 kts 332°
2026-04-28 13:31 47.41717 6.03090 36005 ft 462 kts 353°
2026-04-28 13:31 47.48140 6.03249 36007 ft 464 kts 355°
2026-04-28 13:32 47.54588 6.03526 35999 ft 466 kts 355°
2026-04-28 13:32 47.61005 6.03768 36003 ft 462 kts 354°
2026-04-28 13:33 47.67437 6.03960 36004 ft 465 kts 354°
2026-04-28 13:33 47.73935 6.04127 36007 ft 466 kts 354°
2026-04-28 13:34 47.80379 6.04311 36008 ft 464 kts 354°
2026-04-28 13:34 47.86818 6.04518 36005 ft 466 kts 354°
2026-04-28 13:35 47.93277 6.04730 36006 ft 464 kts 354°
2026-04-28 13:35 47.99740 6.04932 36005 ft 468 kts 354°
2026-04-28 13:36 48.06219 6.05136 36006 ft 467 kts 354°
2026-04-28 13:36 48.12711 6.05344 36009 ft 466 kts 354°
2026-04-28 13:37 48.19180 6.05544 36016 ft 467 kts 355°
2026-04-28 13:37 48.25695 6.05749 36026 ft 470 kts 355°
2026-04-28 13:38 48.32224 6.05957 36025 ft 467 kts 355°
2026-04-28 13:38 48.38715 6.06226 36025 ft 467 kts 355°
2026-04-28 13:39 48.45225 6.06545 36027 ft 469 kts 356°
2026-04-28 13:39 48.51691 6.06867 36032 ft 468 kts 356°
2026-04-28 13:40 48.58224 6.07181 36032 ft 471 kts 356°
2026-04-28 13:40 48.64736 6.07496 36032 ft 468 kts 356°
2026-04-28 13:41 48.71232 6.07806 36036 ft 470 kts 356°
2026-04-28 13:41 48.77766 6.08121 36024 ft 470 kts 356°
2026-04-28 13:42 48.84283 6.08431 36029 ft 470 kts 356°
2026-04-28 13:42 48.90792 6.08742 36032 ft 471 kts 356°
2026-04-28 13:43 48.97318 6.09053 36030 ft 472 kts 356°
2026-04-28 13:43 49.03833 6.09368 36038 ft 470 kts 357°
2026-04-28 13:44 49.10303 6.09686 36039 ft 463 kts 356°
2026-04-28 13:44 49.16808 6.09996 36033 ft 472 kts 357°
2026-04-28 13:45 49.23326 6.10311 36036 ft 468 kts 357°
2026-04-28 13:45 49.29828 6.10629 36046 ft 469 kts 357°
2026-04-28 13:46 49.36352 6.10946 36051 ft 468 kts 357°
2026-04-28 13:46 49.42809 6.11110 36056 ft 465 kts 353°
2026-04-28 13:47 49.49009 6.09118 36063 ft 454 kts 332°
2026-04-28 13:47 49.54377 6.04282 36073 ft 448 kts 322°
2026-04-28 13:48 49.59460 5.98759 36066 ft 447 kts 320°
2026-04-28 13:48 49.64500 5.93150 36077 ft 448 kts 320°
2026-04-28 13:49 49.69535 5.87544 36068 ft 448 kts 320°
2026-04-28 13:49 49.74583 5.81934 36078 ft 450 kts 321°
2026-04-28 13:50 49.79625 5.76337 36065 ft 450 kts 321°
2026-04-28 13:50 49.84692 5.70702 36078 ft 450 kts 321°
2026-04-28 13:51 49.89778 5.65031 36068 ft 451 kts 321°
2026-04-28 13:51 49.94877 5.59334 36076 ft 453 kts 322°
2026-04-28 13:52 49.99954 5.53649 36080 ft 453 kts 322°
2026-04-28 13:52 50.05040 5.47938 36086 ft 453 kts 322°
2026-04-28 13:53 50.10135 5.42199 36080 ft 454 kts 322°
2026-04-28 13:53 50.15232 5.36447 36081 ft 455 kts 322°
2026-04-28 13:54 50.20403 5.30772 36079 ft 455 kts 323°
2026-04-28 13:54 50.25612 5.25162 36083 ft 455 kts 323°
2026-04-28 13:55 50.30803 5.19555 36088 ft 454 kts 323°
2026-04-28 13:55 50.35998 5.13913 36085 ft 454 kts 323°
2026-04-28 13:56 50.41147 5.08295 36096 ft 456 kts 323°
2026-04-28 13:56 50.46362 5.02579 36098 ft 457 kts 323°
2026-04-28 13:57 50.51530 4.96896 36104 ft 458 kts 323°
2026-04-28 13:57 50.56755 4.91136 36109 ft 459 kts 324°
2026-04-28 13:58 50.61954 4.85388 36115 ft 458 kts 324°
2026-04-28 13:58 50.67144 4.79631 36118 ft 458 kts 324°
2026-04-28 13:59 50.72368 4.73824 36121 ft 458 kts 324°
2026-04-28 13:59 50.77542 4.68057 36127 ft 459 kts 324°
2026-04-28 14:00 50.82755 4.62230 36135 ft 460 kts 324°
2026-04-28 14:00 50.85364 4.59307 36007 ft 454 kts 324°
2026-04-28 14:00 50.87826 4.56339 35685 ft 449 kts 320°
2026-04-28 14:01 50.90122 4.52945 35094 ft 450 kts 312°
2026-04-28 14:01 50.92098 4.49101 34355 ft 454 kts 306°
2026-04-28 14:01 50.93889 4.44947 33555 ft 460 kts 302°
2026-04-28 14:01 50.95568 4.40687 32718 ft 466 kts 301°
2026-04-28 14:02 50.97237 4.36282 31931 ft 470 kts 301°
2026-04-28 14:02 50.98901 4.31828 31248 ft 471 kts 300°
2026-04-28 14:02 51.00570 4.27359 30526 ft 471 kts 300°
2026-04-28 14:02 51.02241 4.22900 29765 ft 470 kts 300°
2026-04-28 14:03 51.03907 4.18477 29063 ft 467 kts 300°
2026-04-28 14:03 51.05558 4.14108 28365 ft 462 kts 301°
2026-04-28 14:03 51.07208 4.09801 27697 ft 451 kts 302°
2026-04-28 14:03 51.08929 4.05713 27024 ft 441 kts 306°
2026-04-28 14:04 51.10902 4.02092 26390 ft 432 kts 316°
2026-04-28 14:04 51.13126 3.98962 25776 ft 422 kts 321°
2026-04-28 14:04 51.15408 3.96148 25152 ft 414 kts 323°
2026-04-28 14:04 51.17686 3.93499 24551 ft 409 kts 324°
2026-04-28 14:05 51.20004 3.90923 23952 ft 407 kts 329°
2026-04-28 14:05 51.22485 3.88832 23505 ft 400 kts 338°
2026-04-28 14:05 51.25050 3.87218 23192 ft 391 kts 341°
2026-04-28 14:05 51.27640 3.86149 22677 ft 385 kts 356°
2026-04-28 14:06 51.30287 3.86237 22120 ft 380 kts
2026-04-28 14:06 51.32841 3.87035 21643 ft 375 kts 16°
2026-04-28 14:06 51.35336 3.88132 21169 ft 372 kts 19°
2026-04-28 14:06 51.37818 3.89328 20618 ft 370 kts 19°
2026-04-28 14:07 51.40266 3.90512 20084 ft 369 kts 19°
2026-04-28 14:07 51.42716 3.91671 19552 ft 367 kts 19°
2026-04-28 14:07 51.45162 3.92803 18953 ft 366 kts 19°
2026-04-28 14:07 51.47585 3.93905 18305 ft 362 kts 18°
2026-04-28 14:08 51.49988 3.94984 17661 ft 358 kts 18°
2026-04-28 14:08 51.52337 3.96027 17032 ft 354 kts 18°
2026-04-28 14:08 51.54702 3.97070 16394 ft 350 kts 18°
2026-04-28 14:08 51.57023 3.98091 15756 ft 346 kts 18°
2026-04-28 14:09 51.59310 3.99155 15136 ft 342 kts 22°
2026-04-28 14:09 51.61475 4.00709 14658 ft 337 kts 30°
2026-04-28 14:09 51.63497 4.02557 14209 ft 334 kts 33°
2026-04-28 14:09 51.65482 4.04450 13760 ft 332 kts 32°
2026-04-28 14:10 51.67471 4.06296 13299 ft 329 kts 32°
2026-04-28 14:10 51.69466 4.08083 12845 ft 327 kts 31°
2026-04-28 14:10 51.71441 4.09804 12406 ft 325 kts 31°
2026-04-28 14:10 51.73418 4.11500 11947 ft 323 kts 30°
2026-04-28 14:11 51.75391 4.13182 11522 ft 321 kts 30°
2026-04-28 14:11 51.77363 4.14862 11090 ft 317 kts 30°
2026-04-28 14:11 51.79285 4.16502 10696 ft 314 kts 30°
2026-04-28 14:11 51.81208 4.18146 10315 ft 309 kts 30°
2026-04-28 14:12 51.83061 4.19732 10020 ft 302 kts 31°
2026-04-28 14:12 51.84898 4.21305 9760 ft 294 kts 31°
2026-04-28 14:12 51.86675 4.22829 9482 ft 282 kts 31°
2026-04-28 14:12 51.88374 4.24287 9239 ft 272 kts 31°
2026-04-28 14:13 51.90030 4.25713 8899 ft 270 kts 31°
2026-04-28 14:13 51.91676 4.27134 8551 ft 269 kts 31°
2026-04-28 14:13 51.93317 4.28550 8149 ft 268 kts 31°
2026-04-28 14:13 51.94941 4.29950 7852 ft 266 kts 31°
2026-04-28 14:14 51.96571 4.31357 7578 ft 266 kts 31°
2026-04-28 14:14 51.98201 4.32763 7300 ft 263 kts 31°
2026-04-28 14:14 51.99806 4.34149 6962 ft 262 kts 31°
2026-04-28 14:14 52.01399 4.35527 6639 ft 260 kts 31°
2026-04-28 14:15 52.02993 4.36907 6296 ft 259 kts 31°
2026-04-28 14:15 52.04566 4.38270 5988 ft 257 kts 31°
2026-04-28 14:15 52.06137 4.39630 5667 ft 254 kts 31°
2026-04-28 14:15 52.07682 4.40970 5280 ft 251 kts 31°
2026-04-28 14:16 52.09218 4.42303 4839 ft 249 kts 32°
2026-04-28 14:16 52.10727 4.43615 4386 ft 247 kts 31°
2026-04-28 14:16 52.12237 4.44928 3958 ft 245 kts 32°
2026-04-28 14:16 52.13727 4.46223 3641 ft 237 kts 32°
2026-04-28 14:17 52.15133 4.47443 3399 ft 228 kts 32°
2026-04-28 14:17 52.16505 4.48638 3152 ft 221 kts 32°
2026-04-28 14:17 52.17837 4.49800 2918 ft 213 kts 32°
2026-04-28 14:17 52.19105 4.50906 2689 ft 202 kts 32°
2026-04-28 14:18 52.20304 4.52005 2437 ft 191 kts 38°
2026-04-28 14:18 52.21205 4.53464 2184 ft 179 kts 59°
2026-04-28 14:18 52.21764 4.55194 1999 ft 169 kts 62°
2026-04-28 14:18 52.22345 4.56778 1988 ft 157 kts 58°
2026-04-28 14:19 52.22913 4.58209 1990 ft 155 kts 59°
2026-04-28 14:19 52.23490 4.59704 1970 ft 152 kts 59°
2026-04-28 14:19 52.24024 4.61084 1804 ft 138 kts 59°
2026-04-28 14:19 52.24514 4.62348 1650 ft 127 kts 58°
2026-04-28 14:20 52.24990 4.63590 1459 ft 130 kts 58°
2026-04-28 14:20 52.25481 4.64830 1276 ft 130 kts 59°
2026-04-28 14:20 52.25959 4.66086 1105 ft 131 kts 60°
2026-04-28 14:20 52.26432 4.67367 933 ft 132 kts 59°
2026-04-28 14:21 52.26916 4.68640 746 ft 132 kts 54°
2026-04-28 14:21 52.27435 4.69873 550 ft 131 kts 59°
2026-04-28 14:21 52.27896 4.71116 409 ft 128 kts 56°
2026-04-28 14:21 52.28387 4.72346 223 ft 130 kts 57°
2026-04-28 14:22 52.28872 4.73616 58 ft 132 kts 55°
2026-04-28 14:22 52.29342 4.74845 -2 ft 120 kts 57°
2026-04-28 14:22 52.29700 4.75774 -4 ft 67 kts 56°
2026-04-28 14:22 52.29913 4.76332 -4 ft 50 kts 59°
2026-04-28 14:23 52.30113 4.76612 -4 ft 26 kts 28°
2026-04-28 14:23 52.30207 4.76695 -4 ft 11 kts 29°
2026-04-28 14:23 52.30272 4.76742 -4 ft 10 kts 12°
2026-04-28 14:23 52.30315 4.76809 -4 ft 9 kts 65°
2026-04-28 14:24 52.30351 4.76925 -4 ft 11 kts 58°
2026-04-28 14:24 52.30410 4.77039 -4 ft 14 kts 20°
2026-04-28 14:24 52.30455 4.76949 -4 ft 12 kts 251°
2026-04-28 14:24 52.30422 4.76846 -4 ft 7 kts 260°
2026-04-28 14:25 52.30454 4.76787 -4 ft 6 kts 324°
2026-04-28 14:25 52.30470 4.76769 -4 ft 0 kts 324°